Location: Unspecified
(49.8670°N, 0.0000°E)
Time: 02:17:08
(UTC+00:00)

Vanguard 1 - Pass Details

Date: 27 June 2019
Orbit: 653 x 3830 km, 34.3° (Epoch: 15 July)

Event Time Altitude Azimuth Distance (km) Brightness Sun altitude
Rises 05:09:41 0° 265° (W) 7,111 13.8 9.6°
Reaches altitude 10° 05:15:41 10° 257° (WSW) 5,594 13.3 10.5°
Maximum altitude 05:28:05 32° 203° (SSW) 2,896 12.2 12.3°
Drops below altitude 10° 05:35:40 10° 144° (SE) 3,375 13.1 13.4°
Sets 05:38:19 0° 134° (SE) 4,027 13.6 13.8°
